Location: Eckley
(40.9930°N, 75.8630°W)
Time: 15:56:01
(UTC-04:00)

Daily predictions for brighter satellites

Satellite Brightness Start Highest point End
(mag) Time Altitude Azimuth Time Altitude Azimuth Time Altitude Azimuth
Meteor 1-16 Rocket 4.3 21:02:42 10° N 21:08:17 75° E 21:14:02 10° SSE
Cosmos 1953 Rocket 4.0 21:05:30 10° SSE 21:09:34 41° E 21:13:42 10° NNE
ERS-1 Rocket 4.4 21:07:49 10° ESE 21:11:42 23° ENE 21:15:37 10° NNE
Cosmos 1758 Rocket 3.7 21:10:19 10° S 21:14:41 59° E 21:19:02 10° NNE
Cosmos 1437 3.6 21:13:52 10° N 21:16:46 32° ENE 21:19:39 10° SE
OE (NEXTSAT) 4.4 21:14:43 10° WNW 21:18:16 79° SSW 21:21:47 10° ESE
USA 215 3.4 21:12:17 10° SE 21:18:51 88° SW 21:25:28 10° NW
Cosmos 1707 4.2 21:15:22 10° SSW 21:19:01 40° WNW 21:22:41 10° N
Cosmos 1674 3.9 21:16:22 10° SE 21:19:28 24° E 21:22:36 10° NE
Terra 4.1 21:26:40 10° ENE 21:27:13 10° ENE 21:27:46 10° NE
Resurs 01 Rocket 2.5 21:24:07 10° S 21:28:23 50° W 21:32:43 10° NNW
Cosmos 1048 Rocket 4.3 21:23:39 10° SSW 21:28:57 77° WNW 21:34:21 10° NNE
Cosmos 1726 3.7 21:27:10 10° NNE 21:30:05 21° ENE 21:32:39 12° ESE
ERS-2 2.8 21:27:37 10° S 21:31:13 54° WSW 21:34:50 10° NNW
USA 186 4.4 21:29:21 10° SW 21:31:34 17° W 21:33:43 10° NW
Cosmos 921 Rocket 3.6 21:28:28 10° N 21:32:48 45° ENE 21:36:46 12° SE
OAO 3 Rocket 3.8 21:28:36 10° WSW 21:33:17 42° S 21:37:43 11° ESE
Cosmos 1825 Rocket 4.1 21:34:36 10° SSW 21:39:01 63° W 21:43:27 10° N
SL-8 R/B 3.7 21:35:51 10° WSW 21:40:41 88° NNW 21:45:33 10° ENE
Cosmos 2278 Rocket 3.3 21:37:19 10° SSE 21:41:47 24° ESE 21:46:16 10° NE
ARGOS 3.2 21:36:37 10° SSE 21:42:01 74° ENE 21:47:27 10° N
Cosmos 1315 Rocket 3.5 21:39:56 10° SSW 21:43:56 59° WNW 21:48:00 10° N
Cosmos 1461 4.2 21:40:24 10° SSE 21:44:05 24° ESE 21:47:53 10° ENE
MetOp-A 4.1 21:42:52 10° SSE 21:48:13 80° ENE 21:53:36 10° N
Spot 2 Rocket 4.4 21:44:22 10° S 21:49:13 47° W 21:54:08 10° NNW
APEX 4.4 21:50:32 10° N 21:53:12 24° ENE 21:55:16 15° ESE
Cosmos 1844 Rocket 2.9 21:52:38 10° SSW 21:58:17 77° WNW 22:03:58 10° NNE
Cosmos 220 Rocket 4.3 21:54:34 11° S 21:58:24 42° ESE 22:02:23 10° NNE
COSMOS 2406 3.4 21:54:19 10° NNW 22:00:04 66° ENE 22:04:22 18° SE
Cosmos 1844 3.7 21:58:55 10° SSW 22:04:37 88° WNW 22:10:25 10° NNE
SL-08 RB Rocket 3.8 22:01:15 14° SSE 22:05:18 84° WSW 22:10:01 10° NNW
ATLAS 3B R/B 2.7 22:01:28 10° NNW 22:08:05 67° NE 22:12:52 19° SE
Cosmos 1238 Rocket 3.9 22:05:35 10° SW 22:08:15 31° WNW 22:11:02 10° NNW
KORONAS-FOTON 3.7 22:05:23 13° S 22:08:48 77° E 22:12:44 10° N
Cosmos 1110 Rocket 4.0 22:04:27 10° NNW 22:09:39 83° WSW 22:13:32 18° SSE
SPOT 5 3.4 22:06:25 19° SE 22:09:51 51° ENE 22:14:59 10° N
SL-14 R/B 4.1 22:09:27 23° SE 22:11:00 32° E 22:14:31 10° NNE
USA 238 DEB 3.8 22:05:05 10° NW 22:12:17 89° WSW 22:17:40 20° SSE
USA 238 3.8 22:05:12 10° NW 22:12:23 90° WSW 22:17:45 20° SSE
Cosmos 2084 4.4 22:10:12 10° NW 22:13:42 34° WSW 22:16:07 17° S
Cosmos 1346 Rocket 3.8 22:11:39 10° NNW 22:15:29 44° W 22:19:03 12° SSW
ATLAS 5 CENTAUR R/B 2.6 22:14:23 23° SE 22:15:32 26° ESE 22:19:28 10° ENE
Lacrosse 5 3.8 22:11:50 10° W 22:16:23 33° NNW 22:20:57 10° NNE
Cosmos-2242 3.9 22:13:03 10° NNW 22:17:17 48° W 22:21:20 11° SSW
NOSS 2-2 (C) 4.4 22:20:40 25° ESE 22:20:40 25° ESE 22:23:59 10° ENE
S3M 4.0 22:15:37 11° S 22:21:46 79° E 22:28:12 10° N
Cosmos 1331 Rocket 4.1 22:16:51 10° NNW 22:22:03 73° WSW 22:25:39 20° S
SPOT 1/Viking Rocket 3.6 22:20:08 23° SSE 22:23:20 66° ENE 22:28:26 10° N
H-2A R/B 2.6 22:18:45 13° S 22:23:23 58° W 22:28:44 10° NNW
NOSS 3-2 (A) 4.1 22:16:20 10° NNW 22:23:55 74° NE 22:29:42 22° SE
Cosmos 2082 Rocket 3.6 22:24:51 10° N 22:29:40 27° NE 22:33:00 16° ESE
Helios 1A 2.9 22:28:25 29° SSE 22:30:29 74° ENE 22:34:42 10° N
Cosmos 1833 Rocket 3.9 22:25:34 10° N 22:30:29 30° ENE 22:33:38 18° ESE
Cosmos 1626 3.2 22:31:41 27° ESE 22:32:03 28° E 22:35:15 10° NNE
Helios 1B rocket 2.7 22:28:15 10° NNE 22:32:14 48° E 22:33:41 33° SSE
Cosmos 1908 4.4 22:31:50 10° NNW 22:35:27 38° W 22:38:07 16° SSW
Cosmos 1842 Rocket 3.5 22:32:36 10° N 22:36:58 84° W 22:39:11 29° S
CZ-2C R/B 3.6 22:33:41 10° NE 22:38:18 28° E 22:39:35 25° ESE
ATLAS 2AS CENTAUR R/B 4.0 22:31:28 10° WSW 22:39:05 51° NW 22:46:59 10° NNE
Cosmos 1340 3.1 22:37:05 10° NNW 22:40:48 57° W 22:42:34 28° SSW
Cosmos 1553 Rocket 4.4 22:38:31 10° SSW 22:44:29 60° W 22:50:30 10° N
Landsat 7 3.7 22:42:27 31° SSE 22:44:45 86° ENE 22:49:32 10° NNW
Spot 1 4.3 22:46:00 36° SE 22:47:35 58° ENE 22:52:08 10° N
NOSS 3-2 (C) 4.1 22:42:11 10° NNW 22:49:48 78° NE 22:54:47 27° SE
ERS-1 Rocket 3.9 22:46:44 17° SSW 22:50:12 42° W 22:55:00 10° NNW
Cosmos 1302 Rocket 4.1 22:45:46 10° NNW 22:51:03 73° WSW 22:53:36 31° S
Cosmos 1455 3.8 22:55:56 10° NNE 22:58:55 22° ENE 22:59:05 22° ENE
Cosmos 883 Rocket 4.4 22:55:18 25° S 22:59:05 85° E 23:05:22 10° N
Cosmos 1300 2.9 22:56:39 10° NNW 23:00:27 66° W 23:01:28 44° SSW
Cosmos 2251 Rocket 4.2 22:57:35 10° SW 23:02:49 55° WNW 23:08:03 10° N
Terra 1.7 23:02:30 41° SSE 23:04:11 88° ENE 23:08:58 10° NNW
Cosmos 1726 4.2 23:02:15 10° NW 23:05:16 23° W 23:07:13 15° SW
Cosmos 2315 Rocket 4.0 23:02:10 31° S 23:05:22 72° E 23:11:43 10° NNE
RESURS DK-1 2.8 23:06:04 42° E 23:06:04 42° E 23:09:46 10° NE
Cosmos 2221 2.5 23:02:37 10° N 23:06:56 76° W 23:08:10 45° S
Cosmos 1992 Rocket 4.3 23:01:51 10° N 23:06:59 54° ENE 23:08:42 37° ESE
Okean 3 Rocket 3.5 23:06:52 50° SSE 23:07:47 65° E 23:12:08 10° NNE
H-2A R/B 4.0 23:09:34 28° S 23:12:17 33° SE 23:41:36 10° E
NOSS 2-2 (E) 3.4 23:11:47 28° SW 23:13:45 75° NW 23:18:09 10° NNE
CENTAUR R/B 3.4 23:07:19 10° NNW 23:15:12 62° NE 23:20:12 27° ESE
Meteor 1-29 3.2 23:11:53 10° N 23:15:14 60° WNW 23:15:43 53° WSW
COBE Rocket 4.5 23:10:27 10° NNE 23:15:17 42° E 23:16:06 39° ESE
NOSS 3-4 (A) 3.7 23:10:03 10° SW 23:16:10 69° NW 23:22:37 10° NNE
NOSS 3-4 (C) 3.7 23:10:08 10° SW 23:16:15 70° NW 23:22:41 10° NNE
OAO 3 Rocket 4.5 23:12:09 10° WSW 23:15:30 26° SW 23:15:30 26° SW
CZ-2C R/B 3.3 23:19:33 38° S 23:21:55 79° WSW 23:27:42 10° NNW
Cosmos 1328 3.8 23:21:27 57° SW 23:22:07 74° W 23:26:05 10° N
Meteor 1-11 4.3 23:20:56 42° SSE 23:22:46 65° E 23:28:31 10° NNE
Cosmos 1461 4.4 23:18:37 10° WSW 23:23:00 41° NW 23:27:32 10° NNE
Cosmos 2278 Rocket 3.1 23:20:05 10° SW 23:25:31 47° WNW 23:31:01 10° NNE
Spot 4 4.0 23:33:05 52° SE 23:34:03 66° ENE 23:38:53 10° N
ATLAS 3B CENTAUR R/B 3.9 23:21:47 10° WSW 23:34:29 33° S 23:35:02 33° S
Cosmos 407 Rocket 3.9 23:35:41 42° ESE 23:35:52 43° ESE 23:40:44 10° NNE
Cosmos 1441 Rocket 4.0 23:36:19 10° N 23:39:34 40° ENE 23:39:34 40° ENE
NOSS 2-2 (D) 4.4 23:42:34 22° WSW 23:44:45 44° NW 23:48:57 10° NNE
Cosmos 1190 Rocket 4.0 23:49:20 57° SE 23:49:48 60° ESE 23:54:56 10° NNE
Cosmos 405 Rocket 3.5 23:48:42 10° N 23:51:43 41° NE 23:51:43 41° NE
Cosmos 2369 Rocket 3.6 23:54:56 23° E 23:54:56 23° E 23:58:55 10° NE
